Weather History for Staunton, VA

Change the Weather History Date:

Sunday, April 20, 2014

  Actual Average Record
Temperature  
Mean Temperature 51 °F -  
Max Temperature 64 °F 66 °F 84 °F (2005)
Min Temperature 38 °F 42 °F 28 °F (1997)
Degree Days  
Heating Degree Days 14    
Growing Degree Days 1 (Base 50)    
Moisture  
Dew Point 32 °F    
Average Humidity 52    
Maximum Humidity 83    
Minimum Humidity 26    
Precipitation  
Precipitation 0.00 in - - ()
Sea Level Pressure  
Sea Level Pressure 30.33 in    
Wind  
Wind Speed 3 mph (NE)    
Max Wind Speed 9 mph    
Max Gust Speed -    
Visibility 10 miles    
Events      
Averages and records for this station are not official NWS values.
T = Trace of Precipitation, MM = Missing Value Source: NWS Daily Summary

Daily Weather History Graph

Daily Weather History Graph

Search for Another Location

Airport:

Trip Planner

Search our weather history database for the weather conditions in past years. The results will help you decide how hot, cold, wet, or windy it might be!

Date:

Astronomy

Apr. 20, 2014 Rise Set
Actual Time 6:32 AM EDT 7:56 PM EDT
Civil Twilight 6:05 AM EDT 8:24 PM EDT
Nautical Twilight 5:32 AM EDT 8:57 PM EDT
Astronomical Twilight 4:57 AM EDT 9:32 PM EDT
Moon 12:33 AM EDT 10:53 AM EDT
Length of Visible Light 14h 18m
Length of Day
13h 23m
Waning Gibbous, 69% of the Moon is Illuminated
Apr 20
Waning Gibbous
Apr 22
Last Quarter
Apr 29
New
May 6
First Quarter
May 14
Full

Hourly Weather History & Observations

Time (EDT) Temp. Windchill Dew Point Humidity Pressure Visibility Wind Dir Wind Speed Gust Speed Precip Events Conditions
12:15 AM 50.7 °F - 33.8 °F 52% 30.31 in 10.0 mi NNE 3.5 mph - N/A   Clear
12:35 AM 44.8 °F - 35.6 °F 70% 30.31 in 10.0 mi Calm Calm - N/A   Clear
12:55 AM 45.1 °F - 36.1 °F 71% 30.31 in 10.0 mi Calm Calm - N/A   Clear
1:15 AM 44.2 °F - 36.5 °F 74% 30.32 in 10.0 mi Calm Calm - N/A   Clear
1:35 AM 44.6 °F - 35.6 °F 71% 30.32 in 10.0 mi Calm Calm - N/A   Clear
1:55 AM 45.0 °F 43.5 °F 34.9 °F 68% 30.31 in 10.0 mi NNW 3.5 mph - N/A   Clear
2:15 AM 43.2 °F - 35.6 °F 75% 30.31 in 10.0 mi Calm Calm - N/A   Clear
2:35 AM 42.8 °F - 35.6 °F 76% 30.31 in 10.0 mi Calm Calm - N/A   Clear
2:55 AM 42.8 °F - 34.3 °F 72% 30.31 in 10.0 mi Calm Calm - N/A   Clear
3:15 AM 41.2 °F - 35.1 °F 79% 30.32 in 10.0 mi Calm Calm - N/A   Clear
3:35 AM 41.0 °F - 34.7 °F 78% 30.32 in 10.0 mi Calm Calm - N/A   Clear
3:55 AM 45.0 °F - 33.3 °F 64% 30.31 in 10.0 mi Calm Calm - N/A   Clear
4:15 AM 38.8 °F - 34.2 °F 83% 30.32 in 10.0 mi Calm Calm - N/A   Clear
4:35 AM 42.3 °F - 33.8 °F 72% 30.32 in 10.0 mi Calm Calm - N/A   Clear
4:55 AM 40.1 °F - 33.4 °F 77% 30.32 in 10.0 mi Calm Calm - N/A   Clear
5:15 AM 40.8 °F - 33.4 °F 75% 30.32 in 10.0 mi Calm Calm - N/A   Clear
5:35 AM 40.6 °F - 33.1 °F 74% 30.33 in 10.0 mi Calm Calm - N/A   Clear
5:55 AM 40.1 °F - 32.5 °F 74% 30.33 in 10.0 mi Calm Calm - N/A   Clear
6:15 AM 39.0 °F - 32.2 °F 76% 30.34 in 10.0 mi Calm Calm - N/A   Clear
6:35 AM 39.4 °F - 32.0 °F 75% 30.35 in 10.0 mi Calm Calm - N/A   Clear
6:55 AM 40.1 °F 38.0 °F 32.0 °F 73% 30.35 in 10.0 mi NNE 3.5 mph - N/A   Clear
7:15 AM 43.3 °F 39.9 °F 31.1 °F 62% 30.35 in 10.0 mi North 5.8 mph - N/A   Clear
7:35 AM 43.3 °F 39.9 °F 32.0 °F 64% 30.36 in 10.0 mi NNE 5.8 mph - N/A   Clear
7:55 AM 44.6 °F 41.4 °F 31.6 °F 60% 30.37 in 10.0 mi North 5.8 mph - N/A   Clear
8:15 AM 45.3 °F 41.6 °F 31.5 °F 58% 30.37 in 10.0 mi NNE 6.9 mph - N/A   Clear
8:35 AM 46.0 °F 42.5 °F 32.4 °F 59% 30.38 in 10.0 mi NNE 6.9 mph - N/A   Clear
8:55 AM 47.1 °F - 33.1 °F 58% 30.38 in 10.0 mi NE 5.8 mph - N/A   Clear
9:15 AM 48.0 °F - 32.0 °F 54% 30.39 in 10.0 mi NE 5.8 mph - N/A   Clear
9:35 AM 48.9 °F - 31.8 °F 52% 30.39 in 10.0 mi NE 9.2 mph - N/A   Clear
9:55 AM 49.6 °F - 31.1 °F 49% 30.40 in 10.0 mi NNE 6.9 mph - N/A   Clear
10:15 AM 51.1 °F - 31.8 °F 48% 30.40 in 10.0 mi North 4.6 mph - N/A   Clear
10:35 AM 52.2 °F - 32.4 °F 47% 30.41 in 10.0 mi North 4.6 mph - N/A   Clear
10:55 AM 54.5 °F - 32.2 °F 43% 30.41 in 10.0 mi NE 5.8 mph - N/A   Clear
11:15 AM 56.7 °F - 31.8 °F 39% 30.41 in 10.0 mi NNE 8.1 mph - N/A   Clear
11:35 AM 57.9 °F - 30.6 °F 35% 30.41 in 10.0 mi North 5.8 mph - N/A   Clear
11:55 AM 57.4 °F - 28.8 °F 34% 30.40 in 10.0 mi NNE 8.1 mph - N/A   Clear
12:15 PM 58.1 °F - 30.2 °F 35% 30.39 in 10.0 mi NE 6.9 mph - N/A   Clear
12:35 PM 59.4 °F - 29.1 °F 32% 30.38 in 10.0 mi North 6.9 mph - N/A   Clear
12:55 PM 60.3 °F - 27.5 °F 29% 30.38 in 10.0 mi Calm Calm - N/A   Clear
1:15 PM 60.3 °F - 27.9 °F 29% 30.37 in 10.0 mi NNE 6.9 mph - N/A   Clear
1:35 PM 61.0 °F - 28.9 °F 30% 30.36 in 10.0 mi ENE 5.8 mph - N/A   Clear
1:55 PM 61.7 °F - 28.6 °F 29% 30.35 in 10.0 mi ENE 4.6 mph - N/A   Clear
2:15 PM 62.8 °F - 29.7 °F 29% 30.34 in 10.0 mi North 8.1 mph - N/A   Clear
2:35 PM 62.4 °F - 28.2 °F 27% 30.34 in 10.0 mi North 3.5 mph - N/A   Clear
2:55 PM 62.4 °F - 28.0 °F 27% 30.33 in 10.0 mi Calm Calm - N/A   Clear
3:15 PM 63.7 °F - 31.5 °F 30% 30.32 in 10.0 mi NE 9.2 mph - N/A   Clear
3:35 PM 63.7 °F - 29.5 °F 28% 30.31 in 10.0 mi NE 4.6 mph - N/A   Clear
3:55 PM 63.9 °F - 29.7 °F 28% 30.30 in 10.0 mi NNE 6.9 mph - N/A   Clear
4:15 PM 63.7 °F - 28.8 °F 27% 30.30 in 10.0 mi Calm Calm - N/A   Clear
4:35 PM 64.4 °F - 29.8 °F 27% 30.30 in 10.0 mi NE 3.5 mph - N/A   Clear
4:55 PM 64.0 °F - 28.4 °F 26% 30.29 in 10.0 mi Calm Calm - N/A   Clear
5:15 PM 64.8 °F - 30.9 °F 28% 30.29 in 10.0 mi ENE 3.5 mph - N/A   Clear
5:35 PM 63.9 °F - 29.5 °F 27% 30.29 in 10.0 mi ESE 6.9 mph - N/A   Clear
5:55 PM 63.7 °F - 29.8 °F 28% 30.29 in 10.0 mi East 5.8 mph - N/A   Clear
6:15 PM 63.1 °F - 29.1 °F 28% 30.29 in 10.0 mi East 6.9 mph - N/A   Clear
6:35 PM 62.1 °F - 29.8 °F 30% 30.28 in 10.0 mi ESE 6.9 mph - N/A   Clear
6:55 PM 61.2 °F - 30.7 °F 32% 30.28 in 10.0 mi ESE 5.8 mph - N/A   Clear
7:15 PM 59.9 °F - 31.3 °F 34% 30.28 in 10.0 mi SE 3.5 mph - N/A   Clear
7:35 PM 59.0 °F - 31.5 °F 35% 30.28 in 10.0 mi ESE 3.5 mph - N/A   Clear
7:55 PM 57.2 °F - 32.0 °F 38% 30.28 in 10.0 mi ESE 3.5 mph - N/A   Clear
8:15 PM 55.8 °F - 32.0 °F 41% 30.28 in 10.0 mi ESE 3.5 mph - N/A   Clear
8:35 PM 54.7 °F - 31.5 °F 41% 30.28 in 10.0 mi East 4.6 mph - N/A   Clear
8:55 PM 53.8 °F - 30.7 °F 41% 30.28 in 10.0 mi East 3.5 mph - N/A   Clear
9:15 PM 53.1 °F - 30.7 °F 43% 30.29 in 10.0 mi ENE 4.6 mph - N/A   Clear
9:35 PM 51.4 °F - 31.6 °F 47% 30.29 in 10.0 mi East 3.5 mph - N/A   Clear
9:55 PM 46.4 °F - 34.0 °F 62% 30.29 in 10.0 mi Calm Calm - N/A   Clear
10:15 PM 45.7 °F - 34.0 °F 64% 30.29 in 10.0 mi Calm Calm - N/A   Clear
10:35 PM 43.5 °F - 34.9 °F 72% 30.29 in 10.0 mi Calm Calm - N/A   Clear
10:55 PM 42.3 °F - 34.5 °F 74% 30.28 in 10.0 mi Calm Calm - N/A   Clear
11:15 PM 41.2 °F - 34.3 °F 77% 30.28 in 10.0 mi Calm Calm - N/A   Clear
11:35 PM 41.0 °F - 34.5 °F 78% 30.28 in 10.0 mi Calm Calm - N/A   Clear
11:55 PM 40.5 °F - 34.3 °F 79% 30.27 in 10.0 mi Calm Calm - N/A   Clear